Zurück zum Katalog

SL-8 DEB

AktivPO
NORAD 29282·DEBRIS·🇷🇺 Russia

Gestartet Dec 17, 1981 von Plesetsk Cosmodrome

Loading…

Nächste Überflüge (nächste 24 Stunden)

TLE

AktuellSource: Space-Track

Epoche: Sep 11, 2026, 22:48 UTC

1 29282U 81120L   26254.95069071  .00000083  00000-0  86775-3 0  9998
2 29282  82.9539  63.6142 0020086 259.3112 256.2857 12.03980433619545

Verfolge SL-8 DEB in Echtzeit mit AllMySat

Download on the App Store